Location: Home
(42.5358°N, 72.7383°W)
Time: 12:48:06
(UTC-05:00)

A-11 Canister half - Pass Details

Date: 07 December 2021
Orbit: 1516 x 1684 km, 47.2° (Epoch: 26 January)

Event Time Altitude Azimuth Distance (km) Brightness Sun altitude
Rises 09:05:59 0° 278° (W) 4,806 11.2 15.5°
Reaches altitude 10° 09:09:05 10° 282° (WNW) 3,843 10.7 15.8°
Maximum altitude 09:18:56 68° 5° (N) 1,759 9.4 16.9°
Drops below altitude 10° 09:29:04 10° 88° (E) 3,942 11.7 17.9°
Sets 09:32:17 0° 91° (E) 4,935 12.1 18.2°
